Regional Weather Roundup
Issued by NWS

Home | Current Version | Previous Version | Text Only | Print | Product List | Glossary On
Versions: 1 2 3 4 5 6 7 8 9 10 11 12 13 14 15 16 17 18 19 20 21 22 23 24 25 26 27 28 29 30 31 32 33 34 35 36 37 38 39 40 41 42 43 44 45 46 47 48 49 50
000
ASUS44 KFWD 232315
RWRTX
NORTH TEXAS HOURLY WEATHER ROUNDUP
NATIONAL WEATHER SERVICE FORT WORTH TX
500 PM CST MON JAN 23 2017

NOTE: "FAIR" INDICATES FEW OR NO CLOUDS BELOW 12,000 FEET WITH NO
SIGNIFICANT WEATHER AND/OR OBSTRUCTIONS TO VISIBILITY.

TXZ118-119-240000-
DALLAS/FORT WORTH METROPLEX

CITY           SKY/WX    TMP DP  RH WIND       PRES   REMARKS
DFW AIRPORT    CLEAR     66  35  31 S14       29.80F
DALLAS LOVE    PTCLDY    67  32  27 S12       29.81F
FTW MEACHAM    CLEAR     68  34  28 S12       29.79F
DAL-EXECUTIVE  CLEAR     66  34  30 VRB7      29.81F
FTW-ALLIANCE   CLEAR     66  33  29 S13       29.80F
FTW-NAS-JRB    CLEAR     69  35  28 S13       29.80F
FTW-SPINKS     CLEAR     66  36  32 S13       29.83F
ARLINGTON      CLEAR     65  35  33 SE13      29.82F
GRAND PRAIRIE  CLEAR     64  32  29 S9        29.83F
ADDISON        CLEAR     66  32  28 S6        29.81F
MESQUITE       CLEAR     64  30  27 S7        29.84F
LANCASTER      CLEAR     63  37  38 S10       29.84F
$$

TXZ091>094-102>105-117-120-121-131>134-240000-
NORTH CENTRAL TEXAS

CITY           SKY/WX    TMP DP  RH WIND       PRES   REMARKS
SHRMAN/DENISON CLEAR     62  34  35 SW7       29.82F
GAINESVILLE    CLEAR     62  33  33 SE9       29.82F
BOWIE          CLEAR     67  33  28 SE7G16    29.77F
BRIDGEPORT     CLEAR     69  38  33 S8        29.79F
DECATUR        CLEAR     66  32  28 S10G16    29.79F
DENTON         CLEAR     65  34  31 S12       29.80F
MCKINNEY       CLEAR     62  35  36 SE10      29.82F
BONHAM         CLEAR     61  30  31 S9        29.83S
GREENVILLE     CLEAR     63  32  31 S6        29.84S
ROCKWALL       CLEAR     64  33  32 S14G21    29.84F
TERRELL        CLEAR     64  31  28 S10       29.85F
WAXAHACHIE     CLEAR     64  39  39 S9        29.85F
CLEBURNE       LGT RAIN  66  36  32 SE10      29.83F
GRANBURY       CLEAR     71  38  29 S8        29.81F
$$

TXZ083>090-098>101-113>116-127>130-139>142-154-155-240000-
WESTERN NORTH TEXAS

CITY           SKY/WX    TMP DP  RH WIND       PRES   REMARKS
WICHITA FALLS  CLEAR     69  33  26 S14       29.73F
WF-KICKAPOO    CLEAR     70  35  27 SE13      29.75S
VERNON         CLEAR     71  26  18 S10       29.72S
ABILENE        SUNNY     75  34  22 W12       29.78F
ABILENE-DYESS  SUNNY     75  41  28 W13       29.76F
GRAHAM         SUNNY     73  36  25 S9        29.74F
BRECKENRIDGE   SUNNY     74  35  24 S12G17    29.76F
CISCO          SUNNY     73  34  23 SW14      29.80F
RANGER         SUNNY     72  36  26 SW9       29.80F
MINERAL WELLS  CLEAR     71  32  23 S9        29.76F
STEPHENVILLE   SUNNY     73  33  22 CALM      29.83F
COMANCHE       SUNNY     74  37  26 SW9       29.81F
BROWNWOOD      SUNNY     75  36  23 SW6       29.80F
COLEMAN        SUNNY     75  36  23 SW14G21   29.80S
$$

TXZ143>147-156>162-174-175-240000-
CENTRAL TEXAS

CITY           SKY/WX    TMP DP  RH WIND       PRES   REMARKS
WACO           CLEAR     67  39  35 SE9       29.84F
WACO-TSTC      CLEAR     68  37  32 SE8       29.85
WACO-MCGREGOR  CLEAR     67  43  41 SE10      29.84
HILLSBORO      CLEAR     65  42  42 S9        29.85F
CORSICANA      CLEAR     66  34  30 SW10      29.87F HAZE
MEXIA          CLEAR     65  34  31 S7        29.86S
HEARNE         CLEAR     69  40  34 E3        29.87F
CAMERON        CLEAR     71  39  31 SW8       29.86S
TEMPLE         SUNNY     71  40  32 S10       29.84
KILLEEN        SUNNY     71  37  28 SE9       29.81F
KILLEEN-SKYLRK SUNNY     72  37  28 S9        29.83F
FORT HOOD      SUNNY     73  36  26 S8        29.80F
GATESVILLE     SUNNY     72  37  28 S8        29.85S
HAMILTON       SUNNY     73  35  24 SW8       29.84S
LAMPASAS       SUNNY     75  38  26 S5        29.82F
$$

TXZ095>097-106>112-122>126-135>138-148>153-164>167-240000-
EAST TEXAS

CITY           SKY/WX    TMP DP  RH WIND       PRES   REMARKS
PARIS          CLEAR     63  34  34 S10       29.85S
SULPHUR SPRNGS CLEAR     63  31  29 S7        29.86F
MOUNT PLEASANT CLEAR     64  29  27 W3        29.87S
GILMER         CLEAR     63  31  29 CALM      29.86S
MINEOLA        CLEAR     64  30  27 S5        29.84F
TYLER          CLEAR     65  31  28 S6        29.85F
LONGVIEW       CLEAR     65  31  28 W5        29.86S
MARSHALL       CLEAR     65  31  28 W3        29.89S
ATHENS         CLEAR     63  28  27 CALM      29.84F
PALESTINE      CLEAR     67  32  27 S5        29.87F
JACKSONVILLE   CLEAR     65  32  28 CALM      29.88F
HENDERSON      CLEAR     64  31  28 SW3       29.88F
CENTER         CLEAR     67  29  24 W3        29.89S
NACOGDOCHES    CLEAR     66  32  28 NW6       29.87S
LUFKIN         CLEAR     66  30  26 NW6       29.88R
$$

SUPPLEMENTAL OBSERVATIONS (CENTRAL)

CITY           SKY/WX    TMP DP  RH WIND       PRES   REMARKS
DENISON DAM      N/A     63  28  27 SW9         N/A
CADDO GRASSLND   N/A     63  30  29 S8          N/A
PAT MAYSE LAKE   N/A     61  28  29 S8          N/A
GREENVILLE       N/A     63  32  31 S8          N/A
CEDAR HILL       N/A     64  34  32 S8G16       N/A
ATHENS           N/A     64  30  27 SW3         N/A
LAKE LIMESTONE   N/A     68  34  28 SW5         N/A
MCGREGOR         N/A     70  39  32 S9          N/A
TEMPLE           N/A     68  39  34 S10         N/A
$$

SUPPLEMENTAL OBSERVATIONS (WEST)

CITY           SKY/WX    TMP DP  RH WIND       PRES   REMARKS
MILLERS CREEK    N/A     70  39  32 SW12G20     N/A
POSSUM KINGDOM   N/A     73  34  23 SW8G17      N/A
LBJ GRASSLAND    N/A     66  32  28 SE10        N/A
GRANBURY         N/A     72  39  30 S9G17       N/A
COMANCHE         N/A     73  34  23 SW9         N/A
HAMBY            N/A     75  39  27 W9G17       N/A
IVIE RESERVOIR   N/A     77  34  20 SW12        N/A
COLORADO BEND    N/A     75  34  22 W6          N/A
$$

SUPPLEMENTAL OBSERVATIONS (EAST)

CITY           SKY/WX    TMP DP  RH WIND       PRES   REMARKS
CLARKSVILLE      N/A     61  30  31 SW3         N/A
TEXARKANA        N/A     63  34  34 SW3         N/A
LINDEN           N/A     63  32  31 W2          N/A
CADDO LAKE       N/A     55  39  54 CALM        N/A
GILMER           N/A     66  32  28 SW2         N/A
HENDERSON        N/A     66  30  26 W5          N/A
LUFKIN           N/A     66  32  28 MISG        N/A
N SABINE NF      N/A     61  39  44 MISG        N/A
S SABINE NF      N/A     57  45  62 CALM        N/A
$$

SUPPLEMENTAL OBSERVATIONS ARE A COLLECTION OF AUTOMATED INSTRUMENTS
THAT ARE MAINTAINED BY A VARIETY OF FEDERAL AND STATE AGENCIES.
CERTAIN ELEMENTS...SUCH AS HUMIDITY VALUES AND SUSTAINED WIND
SPEEDS...MAY BE APPROXIMATED.




USA.gov is the U.S. government's official web portal to all federal, state and local government web resources and services.